When you browse on this site, cookies collect data to enhance your experience and personalize the content and advertising you see.
Visit our Privacy Policy to learn more. By continuing to use the site, you agree to this use of cookies and data.
  • In Lithuania
  • List of Countries
  • For 7 days
  • Water Temperature
  • Weather Map
  • Weather Widgets
  • user-avatar
    Login

    Hourly Weather Arbuzinka

    Today, 20 August, Tuesday

    Time Temperature Precipitation Wind Pressure Humidity
    00:00 +21°C° 0 mm 2 mps 754 mmHg 55%
    01:00 +21°C° 0 mm 1 mps 754 mmHg 59%
    02:00 +20°C° 0 mm 1 mps 754 mmHg 62%
    03:00 +20°C° 0 mm 1 mps 755 mmHg 64%
    04:00 +20°C° 0 mm 1 mps 755 mmHg 65%
    05:00 +20°C° 0 mm 1 mps 755 mmHg 66%
    06:00 +22°C° 0 mm 1 mps 755 mmHg 60%
    07:00 +24°C° 0 mm 2 mps 755 mmHg 53%
    08:00 +26°C° 0 mm 2 mps 755 mmHg 47%
    09:00 +28°C° 0 mm 3 mps 755 mmHg 43%
    10:00 +29°C° 0 mm 3 mps 755 mmHg 39%
    11:00 +30°C° 0 mm 3 mps 755 mmHg 35%
    12:00 +31°C° 0 mm 3 mps 755 mmHg 32%
    13:00 +33°C° 0 mm 3 mps 755 mmHg 29%
    14:00 +34°C° 0 mm 3 mps 755 mmHg 27%
    15:00 +33°C° 0 mm 3 mps 755 mmHg 27%
    16:00 +33°C° 0 mm 3 mps 754 mmHg 27%
    17:00 +33°C° 0 mm 3 mps 754 mmHg 28%
    18:00 +30°C° 0 mm 3 mps 754 mmHg 33%
    19:00 +28°C° 0 mm 3 mps 755 mmHg 38%
    20:00 +26°C° 0 mm 3 mps 755 mmHg 43%
    21:00 +25°C° 0 mm 3 mps 755 mmHg 45%
    22:00 +23°C° 0 mm 4 mps 755 mmHg 47%
    23:00 +23°C° 0 mm 4 mps 755 mmHg 49%

    Tomorrow, 21 August, Wednesday

    Time Temperature Precipitation Wind Pressure Humidity
    00:00 +22°C° 0 mm 4 mps 755 mmHg 51%
    01:00 +22°C° 0 mm 3 mps 755 mmHg 54%
    02:00 +21°C° 0 mm 3 mps 755 mmHg 56%
    03:00 +21°C° 0 mm 3 mps 755 mmHg 57%
    04:00 +20°C° 0 mm 3 mps 755 mmHg 59%
    05:00 +20°C° 0 mm 3 mps 755 mmHg 60%
    06:00 +22°C° 0 mm 4 mps 755 mmHg 56%
    07:00 +25°C° 0 mm 4 mps 755 mmHg 51%
    08:00 +27°C° 0 mm 4 mps 755 mmHg 47%
    09:00 +29°C° 0 mm 4 mps 755 mmHg 42%
    10:00 +30°C° 0 mm 5 mps 755 mmHg 37%
    11:00 +33°C° 0 mm 5 mps 754 mmHg 32%
    12:00 +33°C° 0 mm 5 mps 754 mmHg 30%
    13:00 +34°C° 0 mm 5 mps 754 mmHg 28%
    14:00 +35°C° 0 mm 5 mps 753 mmHg 26%
    15:00 +34°C° 0 mm 5 mps 753 mmHg 27%
    16:00 +34°C° 0 mm 5 mps 753 mmHg 28%
    17:00 +33°C° 0 mm 5 mps 752 mmHg 30%
    18:00 +30°C° 0 mm 4 mps 752 mmHg 34%
    19:00 +28°C° 0 mm 4 mps 753 mmHg 38%
    20:00 +26°C° 0 mm 4 mps 753 mmHg 42%
    21:00 +26°C° 0 mm 4 mps 753 mmHg 43%
    22:00 +25°C° 0 mm 4 mps 753 mmHg 45%
    23:00 +25°C° 0 mm 4 mps 753 mmHg 47%

    Day after tomorrow, 22 August, Thursday

    Time Temperature Precipitation Wind Pressure Humidity
    00:00 +23°C° 0 mm 4 mps 753 mmHg 49%
    01:00 +22°C° 0 mm 4 mps 753 mmHg 52%
    02:00 +22°C° 0 mm 3 mps 753 mmHg 55%
    03:00 +21°C° 0 mm 3 mps 753 mmHg 58%
    04:00 +21°C° 0 mm 3 mps 753 mmHg 60%
    05:00 +21°C° 0 mm 3 mps 753 mmHg 62%
    06:00 +22°C° 0 mm 4 mps 753 mmHg 59%
    07:00 +25°C° 0 mm 5 mps 753 mmHg 55%
    08:00 +27°C° 0 mm 5 mps 753 mmHg 51%
    09:00 +28°C° 0 mm 6 mps 753 mmHg 46%
    10:00 +30°C° 0 mm 6 mps 753 mmHg 42%
    11:00 +32°C° 0 mm 6 mps 753 mmHg 38%
    12:00 +33°C° 0 mm 6 mps 753 mmHg 36%
    13:00 +33°C° 0 mm 6 mps 753 mmHg 34%
    14:00 +34°C° 0 mm 6 mps 752 mmHg 32%
    15:00 +34°C° 0 mm 6 mps 752 mmHg 32%
    16:00 +33°C° 0 mm 6 mps 752 mmHg 33%
    17:00 +33°C° 0 mm 6 mps 752 mmHg 33%
    18:00 +30°C° 0 mm 5 mps 753 mmHg 37%
    19:00 +28°C° 0 mm 5 mps 753 mmHg 41%
    20:00 +26°C° 0 mm 4 mps 753 mmHg 46%
    21:00 +26°C° 0 mm 5 mps 754 mmHg 54%
    22:00 +25°C° 0 mm 5 mps 754 mmHg 62%
    23:00 +23°C° 0 mm 6 mps 754 mmHg 70%

    23 August, Friday

    Time Temperature Precipitation Wind Pressure Humidity
    00:00 +22°C° 0 mm 6 mps 754 mmHg 74%
    01:00 +22°C° 0 mm 6 mps 754 mmHg 79%
    02:00 +21°C° 0 mm 5 mps 754 mmHg 84%
    03:00 +21°C° 0 mm 5 mps 754 mmHg 86%
    04:00 +20°C° 0 mm 5 mps 754 mmHg 88%
    05:00 +20°C° 0 mm 5 mps 754 mmHg 90%
    06:00 +21°C° 0 mm 5 mps 754 mmHg 83%
    07:00 +23°C° 0 mm 5 mps 755 mmHg 76%
    08:00 +25°C° 0 mm 5 mps 755 mmHg 69%
    09:00 +27°C° 0 mm 5 mps 755 mmHg 62%
    10:00 +29°C° 0 mm 5 mps 755 mmHg 55%
    11:00 +30°C° 0 mm 5 mps 755 mmHg 48%
    12:00 +32°C° 0 mm 6 mps 755 mmHg 46%
    13:00 +33°C° 0 mm 6 mps 755 mmHg 43%
    14:00 +33°C° 0 mm 6 mps 755 mmHg 41%
    15:00 +33°C° 0 mm 6 mps 755 mmHg 43%
    16:00 +32°C° 0 mm 6 mps 754 mmHg 45%
    17:00 +32°C° 0 mm 6 mps 754 mmHg 47%
    18:00 +29°C° 0 mm 6 mps 755 mmHg 53%
    19:00 +27°C° 0 mm 5 mps 755 mmHg 59%
    20:00 +26°C° 0 mm 5 mps 755 mmHg 64%
    21:00 +25°C° 0 mm 5 mps 755 mmHg 69%
    22:00 +22°C° 0 mm 5 mps 756 mmHg 73%
    23:00 +21°C° 0 mm 6 mps 756 mmHg 78%

    24 August, Saturday

    Time Temperature Precipitation Wind Pressure Humidity
    00:00 +21°C° 0 mm 5 mps 756 mmHg 81%
    01:00 +20°C° 0 mm 5 mps 756 mmHg 83%
    02:00 +19°C° 0 mm 5 mps 756 mmHg 86%
    03:00 +19°C° 0 mm 5 mps 756 mmHg 87%
    04:00 +17°C° 0 mm 5 mps 756 mmHg 88%
    05:00 +17°C° 0 mm 5 mps 756 mmHg 89%
    06:00 +19°C° 0 mm 5 mps 756 mmHg 82%
    07:00 +21°C° 0 mm 6 mps 757 mmHg 74%
    08:00 +22°C° 0 mm 6 mps 757 mmHg 66%
    09:00 +24°C° 0 mm 6 mps 757 mmHg 59%
    10:00 +27°C° 0 mm 6 mps 757 mmHg 53%
    11:00 +28°C° 0 mm 6 mps 757 mmHg 46%
    12:00 +29°C° 0 mm 6 mps 757 mmHg 43%
    13:00 +30°C° 0 mm 6 mps 756 mmHg 40%
    14:00 +32°C° 0 mm 6 mps 756 mmHg 37%
    15:00 +30°C° 0 mm 6 mps 756 mmHg 37%
    16:00 +30°C° 0 mm 6 mps 756 mmHg 38%
    17:00 +30°C° 0 mm 6 mps 756 mmHg 38%
    18:00 +28°C° 0 mm 5 mps 756 mmHg 41%
    19:00 +26°C° 0 mm 5 mps 756 mmHg 44%
    20:00 +23°C° 0 mm 5 mps 756 mmHg 47%
    21:00 +22°C° 0 mm 5 mps 756 mmHg 47%
    22:00 +22°C° 0 mm 5 mps 756 mmHg 48%
    23:00 +21°C° 0 mm 5 mps 756 mmHg 48%

    25 August, Sunday

    Time Temperature Precipitation Wind Pressure Humidity
    00:00 +21°C° 0 mm 5 mps 756 mmHg 50%
    01:00 +20°C° 0 mm 4 mps 756 mmHg 51%
    02:00 +19°C° 0 mm 4 mps 756 mmHg 53%
    03:00 +18°C° 0 mm 4 mps 756 mmHg 55%
    04:00 +18°C° 0 mm 4 mps 756 mmHg 57%
    05:00 +17°C° 0 mm 4 mps 756 mmHg 59%
    06:00 +19°C° 0 mm 4 mps 756 mmHg 54%
    07:00 +21°C° 0 mm 4 mps 756 mmHg 49%
    08:00 +23°C° 0 mm 4 mps 756 mmHg 45%
    09:00 +26°C° 0 mm 4 mps 756 mmHg 39%
    10:00 +27°C° 0 mm 4 mps 756 mmHg 34%
    11:00 +29°C° 0 mm 4 mps 756 mmHg 29%
    12:00 +30°C° 0 mm 4 mps 755 mmHg 27%
    13:00 +32°C° 0 mm 4 mps 755 mmHg 25%
    14:00 +33°C° 0 mm 3 mps 755 mmHg 23%
    15:00 +31°C° 0 mm 3 mps 754 mmHg 22%
    16:00 +31°C° 0 mm 3 mps 754 mmHg 22%
    17:00 +31°C° 0 mm 3 mps 754 mmHg 22%
    18:00 +29°C° 0 mm 3 mps 754 mmHg 25%
    19:00 +26°C° 0 mm 3 mps 754 mmHg 27%
    20:00 +24°C° 0 mm 3 mps 754 mmHg 30%
    21:00 +22°C° 0 mm 3 mps 754 mmHg 31%
    22:00 +21°C° 0 mm 3 mps 754 mmHg 33%
    23:00 +20°C° 0 mm 4 mps 754 mmHg 35%
    Show more